Lamoni, IA

3:19 PM CST on February 22, 2018 (GMT -0600)
Lamoni Municipal

Weather History for KLWD - October, 2010

Change the Weather History Date:

Monday, October 25, 2010

  Actual Average Record
Temperature  
Mean Temperature 60 °F 50 °F  
Max Temperature 70 °F 60 °F 79 °F (1963)
Min Temperature 50 °F 40 °F 27 °F (1962)
Degree Days  
Heating Degree Days 5 15  
Month to date heating degree days 178 283  
Since 1 July heating degree days 236 383  
Cooling Degree Days 0 0  
Month to date cooling degree days 10 11  
Year to date cooling degree days 1184 944  
Growing Degree Days 10 (Base 50)    
Moisture  
Dew Point 53 °F    
Average Humidity 79    
Maximum Humidity 100    
Minimum Humidity 57    
Precipitation  
Precipitation 0.00 in 0.11 in 0.95 in (2006)
Month to date precipitation 1.20 2.32  
Year to date precipitation 49.32  
Sea Level Pressure  
Sea Level Pressure 29.30 in    
Wind  
Wind Speed 14 mph (SSE)    
Max Wind Speed 25 mph    
Max Gust Speed 33 mph    
Visibility 10 miles    
Events      
T = Trace of Precipitation, MM = Missing Value Source: NWS Daily Summary

Daily Weather History Graph

Daily Weather History Graph

Search for Another Location

Airport or City:

Trip Planner

Search our weather history database for the weather conditions in past years. The results will help you decide how hot, cold, wet, or windy it might be!

Date:

Astronomy

Oct. 25, 2010 Rise Set
Actual Time 7:37 AM CDT 6:20 PM CDT
Civil Twilight 7:09 AM CDT 6:48 PM CDT
Nautical Twilight 6:37 AM CDT 7:20 PM CDT
Astronomical Twilight 6:06 AM CDT 7:52 PM CDT
Moon 7:48 PM CDT (10/25) 10:22 AM CDT (10/25)
Length of Visible Light 11h 39m
Length of Day
10h 43m
Waning Gibbous, 93% of the Moon is Illuminated
Oct 25
Waning Gibbous
Oct 30
Last Quarter
Nov 5
New
Nov 13
First Quarter
Nov 21
Full

Hourly Weather History & Observations

Time (CDT) Temp. Dew Point Humidity Pressure Visibility Wind Dir Wind Speed Gust Speed Precip Events Conditions
12:53 AM 53.1 °F 51.1 °F 93% 29.59 in 10.0 mi South 5.8 mph - N/A   Clear
1:53 AM 52.0 °F 51.1 °F 97% 29.59 in 10.0 mi SSE 6.9 mph - N/A   Clear
2:53 AM 52.0 °F 51.1 °F 97% 29.56 in 10.0 mi South 5.8 mph - N/A   Clear
3:53 AM 51.1 °F 50.0 °F 96% 29.53 in 10.0 mi SSE 5.8 mph - N/A   Clear
4:53 AM 51.1 °F 50.0 °F 96% 29.51 in 10.0 mi SSE 6.9 mph - N/A   Clear
5:53 AM 52.0 °F 50.0 °F 93% 29.48 in 10.0 mi South 9.2 mph - N/A   Clear
6:53 AM 52.0 °F 50.0 °F 93% 29.46 in 10.0 mi South 8.1 mph - N/A   Clear
7:53 AM 52.0 °F 51.1 °F 97% 29.45 in 8.0 mi South 8.1 mph - N/A   Clear
8:53 AM 53.1 °F 52.0 °F 96% 29.44 in 7.0 mi SSE 8.1 mph - N/A   Clear
9:53 AM 55.9 °F 54.0 °F 93% 29.43 in 10.0 mi SSE 10.4 mph - N/A   Clear
10:53 AM 57.9 °F 55.0 °F 90% 29.40 in 10.0 mi SSE 11.5 mph - N/A   Clear
11:53 AM 62.1 °F 55.9 °F 80% 29.38 in 10.0 mi SSE 10.4 mph 19.6 mph N/A   Clear
12:53 PM 64.0 °F 57.0 °F 78% 29.31 in 10.0 mi SSE 19.6 mph 25.3 mph N/A   Clear
2:53 PM 68.0 °F 57.0 °F 68% 29.20 in 10.0 mi SSE 19.6 mph 25.3 mph N/A   Clear
3:53 PM 69.1 °F 57.0 °F 65% 29.15 in 10.0 mi SE 18.4 mph 29.9 mph N/A   Clear
4:53 PM 70.0 °F 55.9 °F 61% 29.12 in 10.0 mi SSE 18.4 mph 27.6 mph N/A   Clear
5:53 PM 69.1 °F 55.0 °F 61% 29.11 in 10.0 mi SSE 13.8 mph 23.0 mph N/A   Clear
6:53 PM 69.1 °F 54.0 °F 58% 29.09 in 10.0 mi SSE 17.3 mph 26.5 mph N/A   Overcast
7:53 PM 68.0 °F 54.0 °F 61% 29.06 in 10.0 mi SSE 15.0 mph 23.0 mph N/A   Clear
8:53 PM 68.0 °F 55.0 °F 63% 29.04 in 10.0 mi SSE 12.7 mph 23.0 mph N/A   Mostly Cloudy
9:53 PM 69.1 °F 55.9 °F 63% 28.99 in 10.0 mi South 21.9 mph 32.2 mph N/A   Overcast
10:53 PM 69.1 °F 57.0 °F 65% 29.00 in 10.0 mi SSW 20.7 mph 29.9 mph N/A   Overcast
11:53 PM 66.0 °F 51.1 °F 59% 29.01 in 10.0 mi WSW 23.0 mph 31.1 mph N/A   Overcast